Location: Bosdarros
(43.2167°N, 0.3667°W)
Time: 03:40:03
(UTC+00:00)

SL-8 R/B - Pass Details

Date: 22 April 2021
Orbit: 657 x 667 km, 48.4° (Epoch: 15 May)

Event Time Altitude Azimuth Distance (km) Brightness Sun altitude
Rises 19:58:38 0° 294° (WNW) 3,005 9.2 -11.8°
Reaches altitude 10° 20:01:03 10° 288° (WNW) 2,090 7.7 -12.2°
Maximum altitude 20:05:40 47° 216° (SW) 881 4.3 -12.9°
Enters shadow 20:09:04 17° 148° (SSE) 1,650 5.2 -13.4°
